Location: Holyhead Bay
(53.3667°N, 4.6667°W)
Time: 17:00:22
(UTC+00:00)

ADEOS Rocket - Visible Passes

Search period start: 16 April 2021 00:00
Search period end: 26 April 2021 00:00
Orbit: 859 x 1306 km, 98.7° (Epoch: 16 April)

Date Brightness Start Highest point End Pass type
(mag) Time Alt. Az. Time Alt. Az. Time Alt. Az.
16 Apr 5.0 01:13:23 10° ESE 01:18:50 29° NE 01:24:45 10° N visible
16 Apr 3.2 02:57:20 10° SSE 03:03:39 79° WSW 03:10:46 10° NNW visible
17 Apr 5.6 00:26:26 10° E 00:30:42 18° NE 00:35:12 10° N visible
17 Apr 3.8 02:08:28 10° SE 02:14:42 57° ENE 02:21:40 10° N visible
17 Apr 3.8 03:54:43 10° SSW 04:00:34 37° W 04:07:02 10° NNW visible
17 Apr 6.0 23:40:42 10° NE 23:42:51 12° NNE 23:45:03 10° NNE visible
18 Apr 4.8 01:20:27 10° ESE 01:26:10 33° NE 01:32:23 10° N visible
18 Apr 3.2 03:04:43 10° S 03:11:07 72° WSW 03:18:18 10° NNW visible
19 Apr 5.6 00:33:20 10° E 00:37:58 20° NE 00:42:54 10° N visible
19 Apr 3.7 02:15:43 10° SE 02:22:07 64° ENE 02:29:15 10° NNW visible
19 Apr 3.9 04:02:20 10° SSW 04:08:07 34° W 04:14:29 10° NNW visible
19 Apr 5.9 23:47:16 10° NE 23:50:05 13° NNE 23:53:00 10° N visible
20 Apr 4.7 01:27:34 10° ESE 01:33:31 36° NE 01:40:01 10° N visible
20 Apr 3.3 03:12:09 10° S 03:18:36 65° W 03:25:50 10° NNW visible
21 Apr 5.5 00:40:17 10° E 00:45:17 22° NE 00:50:35 10° N visible
21 Apr 3.6 02:23:00 10° SSE 02:29:31 71° ENE 02:36:49 10° NNW visible
21 Apr 4.1 04:09:59 10° SSW 04:15:42 30° W 04:21:56 10° NNW visible
21 Apr 5.8 23:53:58 10° ENE 23:57:20 14° NNE 00:00:49 10° N visible
22 Apr 4.6 01:34:42 10° SE 01:40:52 40° ENE 01:47:37 10° N visible
22 Apr 3.4 03:19:37 10° S 03:26:06 58° W 03:33:21 10° NNW visible
23 Apr 5.4 00:47:16 10° E 00:52:35 24° NE 00:58:14 10° N visible
23 Apr 3.5 02:30:18 10° SSE 02:36:58 78° ENE 02:44:23 10° NNW visible
23 Apr 4.3 04:17:42 10° SW 04:23:17 28° W 04:29:21 10° NNW visible
24 Apr 5.8 00:00:45 10° ENE 00:04:36 16° NE 00:08:35 10° N visible
24 Apr 4.4 01:41:53 10° SE 01:48:14 45° ENE 01:55:13 10° N visible
24 Apr 3.5 03:27:07 10° S 03:33:38 53° W 03:40:52 10° NNW visible
24 Apr 6.2 23:16:00 10° NNE 23:16:54 10° NNE 23:17:48 10° NNE visible
25 Apr 5.3 00:54:18 10° ESE 00:59:54 27° NE 01:05:52 10° N visible
25 Apr 3.4 02:37:39 10° SSE 02:44:25 86° ENE 02:51:57 10° NNW visible
